Content
SEND FEEDBACK

Daily
Averages
Monthly
Summary
United States of America

CHICAGO, ILLINOIS


Home > North America > United States > Illinois
Elevation: 674 feet     Latitude: 41 59N     Longitude: 087 54W

WEATHER
 
SELECT A DAY
Number of Records: 197,256;   Date Range: 7/8/95 - 9/30/14
 
SHARE

PRINT THIS DATA

[ ← Previous Day ]
WEATHER ALMANAC - MAY 3, 2013
[ Next Day → ]
[ °C ]   °F
Weather ElementAverageHighLow
Temperature43 °F46.9 °F (10:52 pm)39.9 °F (2:52 am)
Dewpoint40.7 °F45 °F (11:52 pm)36 °F (1:52 am)
Humidity91.7 %100 % (7:29 pm)82 % (1:52 am)
Barometer30.05 in30.14 in (1:52 am)29.99 in (7:29 pm)
Wind Speed9.8 mph15 mph (2:52 am)
Wind Gust25.3 mph (1:52 am)
Weather ElementAverage
Visibility9.3 mi
Wind DirectionNNE (30 °)

Weather ElementTotal
Precipitation0.05 in
Heating Degree Days21.6 (Base 65)
Averaged from 24 records on May 3, 2013
WEATHER CONDITIONS BREAKOUT
WIND DIRECTION BREAKOUT
WEATHER BY HOUR - MAY 3, 2013
[ °C ]   °F
Local TimeTemperatureDewpointHumidityBarometerVisibilityWind DirectionWind SpeedGust SpeedPrecipitationEventsConditions
1:52 AM41.0 °F36.0 °F82 %30.14 in10.0 miNNE (20°)11.5 mph25.3 mphOvercast
2:52 AM39.9 °F36.0 °F86 %30.12 in10.0 miNNE (20°)15.0 mph21.9 mphOvercast
3:52 AM39.9 °F36.0 °F86 %30.12 in10.0 miNNE (30°)13.8 mph24.2 mphOvercast
4:52 AM39.9 °F37.0 °F89 %30.12 in10.0 miNNE (20°)10.4 mph24.2 mphOvercast
5:52 AM39.9 °F37.0 °F89 %30.12 in10.0 miNNE (30°)12.7 mph18.4 mphOvercast
6:52 AM39.9 °F37.9 °F93 %30.10 in10.0 miNorth (10°)12.7 mph19.6 mphOvercast
7:52 AM39.9 °F39.0 °F97 %30.11 in7.0 miNNE (20°)12.7 mph17.3 mphOvercast
8:52 AM41.0 °F39.0 °F93 %30.10 in10.0 miNE (40°)8.1 mphOvercast
9:52 AM42.1 °F39.0 °F89 %30.09 in10.0 miNNE (30°)15.0 mph18.4 mph0.00 inOvercast
11:52 AM45.0 °F41.0 °F86 %30.07 in10.0 miNNE (30°)11.5 mph18.4 mphOvercast
12:52 PM46.0 °F42.1 °F86 %30.06 in8.0 miNNE (30°)9.2 mph0.00 inRainLight Rain
1:52 PM44.1 °F42.1 °F93 %30.05 in10.0 miNE (40°)11.5 mph0.00 inOvercast
2:52 PM44.1 °F42.1 °F93 %30.03 in5.0 miNNE (20°)8.1 mph0.03 inRainLight Rain
3:52 PM45.0 °F43.0 °F93 %30.00 in8.0 miNNE (20°)9.2 mph0.01 inRainLight Rain
4:52 PM45.0 °F43.0 °F93 %30.01 in9.0 miNE (50°)6.9 mph0.01 inOvercast
5:52 PM44.1 °F42.1 °F93 %30.01 in8.0 miNNE (20°)8.1 mphOvercast
6:52 PM44.1 °F42.1 °F93 %30.02 in9.0 miNE (50°)6.9 mphOvercast
7:29 PM42.8 °F42.8 °F100 %29.99 in9.0 miNorth (10°)9.2 mph0.00 inRainLight Rain
7:50 PM42.8 °F42.8 °F100 %30.00 in10.0 miNNE (30°)10.4 mph0.00 inOvercast
7:52 PM43.0 °F42.1 °F97 %30.01 in10.0 miNE (40°)8.1 mph0.00 inOvercast
8:52 PM44.1 °F42.1 °F93 %30.02 in10.0 miNE (40°)6.9 mph16.1 mphMostly Cloudy
9:52 PM45.0 °F43.0 °F93 %30.00 in10.0 miNE (50°)6.9 mphOvercast
10:52 PM46.9 °F44.1 °F90 %30.01 in10.0 miNE (40°)6.9 mphOvercast
11:52 PM46.9 °F45.0 °F93 %29.99 in10.0 miNNE (30°)3.5 mphMostly Cloudy
Hourly data recorded from KPWK, located miles away from Chicago, Illinois







STORIES FROM OUR PARTNERS